User: anonymous   Login
Location: Beacon Field Observatory
(38.7700°N, 77.0829°W)
Time: 16:48:55
(UTC-05:00)
Language:

DUCHIFAT 1 - Orbit

View from above orbital plane
View from above orbital plane
View from above satellite
View from above satellite

Ground track
Ground track

The orbit data is extracted from the following two-line orbital elements,

1 40021U 14033M   19344.87331880 +.00000432 +00000-0 +49813-4 0  9995
2 40021 097.9318 270.0919 0012473 186.6621 173.4432 14.90758317297648
Epoch (UTC): 10 December 2019 20:57:34
Eccentricity: 0.0012473
inclination: 97.9318°
perigee height: 587 km
apogee height: 604 km
right ascension of ascending node: 270.0919°
argument of perigee: 186.6621°
revolutions per day: 14.90758317
mean anomaly at epoch: 173.4432°
orbit number at epoch: 29764

The dashed part of the orbit path shows where the satellite is in the earth's shadow,  

DLR